Weather History for Newburgh, NY

Change the Weather History Date:

Sunday, April 7, 2013

  Actual Average Record
Temperature  
Mean Temperature 48 °F -  
Max Temperature 57 °F 52 °F 78 °F (1991)
Min Temperature 39 °F 33 °F 12 °F (1982)
Degree Days  
Heating Degree Days 17    
Moisture  
Dew Point 31 °F    
Average Humidity 55    
Maximum Humidity 82    
Minimum Humidity 28    
Precipitation  
Precipitation 0.00 in - - ()
Sea Level Pressure  
Sea Level Pressure 30.13 in    
Wind  
Wind Speed 7 mph (South)    
Max Wind Speed 17 mph    
Max Gust Speed 33 mph    
Visibility 15 miles    
Events      
Averages and records for this station are not official NWS values.
T = Trace of Precipitation, MM = Missing Value Source: NWS Daily Summary

Daily Weather History Graph

Daily Weather History Graph

Search for Another Location

Airport:

Trip Planner

Search our weather history database for the weather conditions in past years. The results will help you decide how hot, cold, wet, or windy it might be!

Date:

Astronomy

Apr. 07, 2013 Rise Set
Actual Time 6:29 AM EDT 7:28 PM EDT
Civil Twilight 6:00 AM EDT 7:56 PM EDT
Nautical Twilight 5:27 AM EDT 8:30 PM EDT
Astronomical Twilight 4:52 AM EDT 9:05 PM EDT
Moon 4:47 AM EDT (4/7) 4:56 PM EDT (4/7)
Length of Visible Light 13h 55m
Length of Day
12h 59m
Waning Crescent, 8% of the Moon is Illuminated
Apr 7
Waning Crescent
Apr 10
New
Apr 18
First Quarter
Apr 25
Full
May 2
Last Quarter

Hourly Weather History & Observations

Time (EDT) Temp. Windchill Dew Point Humidity Pressure Visibility Wind Dir Wind Speed Gust Speed Precip Events Conditions
12:45 AM 41.0 °F - 24.8 °F 53% 30.27 in 10.0 mi Calm Calm - N/A   Clear
1:45 AM 39.2 °F - 24.8 °F 56% 30.26 in 10.0 mi Calm Calm - N/A   Clear
2:45 AM 39.2 °F - 26.6 °F 61% 30.24 in 10.0 mi Calm Calm - N/A   Clear
3:45 AM 39.2 °F - 26.6 °F 61% 30.24 in 10.0 mi Calm Calm - N/A   Mostly Cloudy
4:45 AM 39.2 °F 33.0 °F 26.6 °F 61% 30.24 in 10.0 mi SW 9.2 mph - N/A   Scattered Clouds
5:45 AM 39.2 °F 33.0 °F 26.6 °F 61% 30.24 in 10.0 mi SSW 9.2 mph - N/A   Mostly Cloudy
6:45 AM 39.2 °F 33.0 °F 26.6 °F 61% 30.26 in 20.0 mi SSW 9.2 mph - N/A   Overcast
7:45 AM 41.0 °F 35.8 °F - N/A% 30.26 in 20.0 mi SW 8.1 mph - N/A   Mostly Cloudy
8:45 AM 41.0 °F 34.3 °F 26.6 °F 57% 30.24 in 20.0 mi SSW 11.5 mph - N/A   Mostly Cloudy
9:45 AM 44.6 °F 38.1 °F 21.2 °F 39% 30.23 in 20.0 mi SSW 13.8 mph - N/A   Mostly Cloudy
10:45 AM 50.0 °F - 19.4 °F 30% 30.20 in 20.0 mi SSW 15.0 mph 21.9 mph N/A   Mostly Cloudy
11:45 AM 53.6 °F - 21.2 °F 28% 30.16 in 20.0 mi South 15.0 mph 23.0 mph N/A   Partly Cloudy
12:45 PM 53.6 °F - 24.8 °F 33% 30.12 in 20.0 mi South 17.3 mph 25.3 mph N/A   Scattered Clouds
1:45 PM 55.4 °F - 28.4 °F 36% 30.09 in 20.0 mi SSE 15.0 mph 23.0 mph N/A   Scattered Clouds
2:45 PM 57.2 °F - 28.4 °F 33% 30.05 in 20.0 mi South 16.1 mph 27.6 mph N/A   Scattered Clouds
3:45 PM 57.2 °F - 35.6 °F 44% 30.01 in 20.0 mi South 15.0 mph 33.4 mph N/A   Scattered Clouds
4:50 PM 55.4 °F - 37.4 °F 51% 29.99 in 20.0 mi South 13.8 mph - N/A   Scattered Clouds
6:50 PM 51.8 °F - 41.0 °F 67% 30.00 in 20.0 mi SSE 13.8 mph - N/A   Scattered Clouds
7:50 PM 50.0 °F - 41.0 °F 71% 30.00 in 10.0 mi SSE 6.9 mph - N/A   Partly Cloudy
8:50 PM 48.2 °F - 41.0 °F 76% 30.00 in 10.0 mi SSE 9.2 mph - N/A   Partly Cloudy
9:50 PM 48.2 °F - 41.0 °F 76% 30.00 in 10.0 mi SE 9.2 mph - N/A   Clear
10:45 PM 48.2 °F - 42.8 °F 82% 30.00 in 10.0 mi ESE 9.2 mph - N/A   Mostly Cloudy
11:45 PM 48.2 °F - 41.0 °F 76% 29.99 in 10.0 mi Calm Calm - N/A   Clear